Weather observations for the past three days for
State College - University Park Airport
Imperial (Metric)
Date Time (edt) Wind (mph) Vis. (mi.) Weather Sky Cond. Temperature (ºF) Relative Humidity Wind Chill (°F) Heat Index (°F) Pressure Precipitation (in)
Air Dwpt 6 hour altimeter (in) sea level (mb) 1 hr 3 hr 6 hr
Max. Min.
13 12:53 S 3 10.00 Partly Cloudy SCT035 82.4 69.8 66% 86 30.19 0.0
13 11:53 S 3 10.00 Partly Cloudy SCT035 80.6 68 66% 83 30.2 0.0
13 10:53 Calm 10.00 A Few Clouds FEW030 78.8 68 70% 81 30.21 0.0
13 09:53 Calm 10.00 A Few Clouds FEW030 75.2 68 78% 76 30.21 0.0
13 08:53 Calm 10.00 Partly Cloudy SCT050 71.6 68 88% 30.22 0.0
13 07:53 Calm 10.00 Fair CLR 68 68 100% 30.23 0.0
13 06:53 Calm 10.00 Fair CLR 64.4 64.4 100% 30.22 0.0
13 05:53 Calm 10.00 Fair CLR 64.4 64.4 100% 30.21 0.0
13 05:35 Calm 10.00 NULL NULL 64.9 64.9 100% 30.2 0.0
13 05:15 Calm 10.00 NULL NULL 64.4 64.4 100% 30.21 0.0
13 04:55 Calm 10.00 NULL NULL 64.6 64.6 100% 30.2 0.0
13 04:35 Calm 10.00 NULL NULL 65.7 65.7 100% 30.18 0.0
13 04:15 Calm 10.00 NULL NULL 66.2 65.8 99% 30.18 0.0
13 03:55 Calm 10.00 NULL NULL 66.7 66.4 99% 30.18 0.0
13 03:35 Calm 10.00 NULL NULL 66.4 65.5 97% 30.17 0.0
13 03:15 Calm 10.00 NULL NULL 67.5 66 95% 30.18 0.0
13 02:55 Calm 10.00 NULL NULL 67.3 66.4 97% 30.18 0.0
13 02:35 Calm 10.00 NULL NULL 68.2 64.6 88% 30.18 0.0
13 02:15 Calm 10.00 NULL NULL 68.7 63.7 84% 30.18 0.0
13 01:55 W 3 10.00 NULL NULL 70.7 63 79.2 67.6 77% 30.19 0.0
13 01:35 Calm 10.00 NULL NULL 67.6 64.9 91% 30.2 0.0
13 01:15 SW 5 10.00 NULL NULL 70.3 63.1 78% 30.2 0.0
13 00:55 SW 6 10.00 NULL NULL 70.2 63 78% 30.2 0.0
13 00:35 Calm 10.00 NULL NULL 69.3 64.6 85% 30.2 0.0
13 00:15 Calm 10.00 NULL NULL 71.8 63.7 76% 30.21 0.0
12 23:55 SW 5 10.00 NULL NULL 72 63 73% 30.21 0.0
12 23:35 S 3 10.00 NULL NULL 71.1 63.3 77% 30.21 0.0
12 23:15 Calm 10.00 NULL NULL 73 63 71% 30.21 0.0
12 22:55 S 3 10.00 NULL NULL 72 63.5 75% 30.2 0.0
12 22:35 Calm 10.00 NULL NULL 73.6 63.1 70% 30.2 0.0
12 22:15 S 3 10.00 NULL NULL 74.3 63.5 69% 30.2 0.0
12 21:53 S 3 10.00 Fair CLR 75.2 64.4 69% 77 30.2 0.0
12 20:53 S 3 10.00 Partly Cloudy SCT045 77 64.4 65% 79 30.18 0.0
12 19:53 SE 6 10.00 A Few Clouds FEW045 78.8 66.2 65% 81 30.17 0.0
12 18:53 SE 5 10.00 Partly Cloudy SCT060 82.4 64.4 55% 84 30.14 0.0
12 17:53 Vrbl 3 10.00 Partly Cloudy SCT060 86 60.8 43% 86 30.13 0.0
12 16:53 SW 5 10.00 Partly Cloudy SCT060 84.2 60.8 45% 84 30.14 0.0
12 15:53 SW 3 10.00 Partly Cloudy SCT060 84.2 60.8 45% 84 30.15 0.0
12 14:53 W 3 10.00 Partly Cloudy SCT045 82.4 59 45% 82 30.16 0.0
12 13:53 W 5 10.00 Mostly Cloudy BKN045 82.4 62.6 51% 83 30.19 0.0
12 12:53 W 3 10.00 Mostly Cloudy BKN030 78.8 62.6 58% 80 30.2 0.0
12 11:53 W 3 10.00 Mostly Cloudy BKN030 77 62.6 61% 79 30.2 0.0
12 10:53 SW 3 10.00 Mostly Cloudy BKN015 75.2 64.4 69% 77 30.2 0.0
12 09:53 Vrbl 5 10.00 Mostly Cloudy BKN015 73.4 66.2 78% 30.21 0.0
12 08:53 Calm 10.00 Mostly Cloudy BKN018 69.8 68 94% 30.2 0.0
12 07:53 Calm 10.00 Partly Cloudy SCT008 66.2 66.2 100% 30.18 0.0
12 06:53 Calm 10.00 Fair CLR 64.4 64.4 100% 30.18 0.0
12 05:53 Calm 10.00 Fair CLR 64.4 64.4 100% 30.17 0.0
12 05:35 Calm 2.50 Fog/Mist NULL 64.4 64.4 100% 30.16 0.0
12 05:15 Calm 10.00 NULL NULL 64.4 64.4 100% 30.15 0.0
12 04:55 Calm 10.00 NULL NULL 65.5 65.3 99% 30.15 0.0
12 04:35 Calm 10.00 NULL NULL 65.8 65.8 100% 30.14 0.0
12 04:15 Calm 10.00 NULL NULL 67.3 67.1 99% 30.14 0.0
12 03:55 Calm 10.00 NULL NULL 67.6 67.6 100% 30.14 0.0
12 03:35 Calm 10.00 NULL NULL 67.3 67.1 99% 30.14 0.0
12 03:15 Calm 10.00 NULL NULL 68 67.6 99% 30.14 0.0
12 02:55 Calm 10.00 NULL NULL 68.5 67.8 98% 30.14 0.0
12 02:35 Calm 10.00 NULL NULL 67.6 67.5 99% 30.15 0.0
12 02:15 Calm 10.00 NULL NULL 68 68 100% 30.15 0.0
12 01:55 Calm 10.00 NULL NULL 68.5 68 72.1 68.5 98% 30.15 0.0
12 01:35 Calm 10.00 NULL NULL 68.7 67.3 95% 30.15 0.0
12 01:15 Calm 10.00 NULL NULL 69.1 65.3 88% 30.15 0.0
12 00:55 Calm 10.00 NULL NULL 69.4 65.3 87% 30.15 0.0
12 00:35 Calm 10.00 NULL NULL 69.4 65.3 87% 30.15 0.0
12 00:15 N 3 10.00 NULL NULL 69.8 65.3 86% 30.15 0.0
11 23:55 Calm 10.00 NULL NULL 69.8 65.1 85% 30.14 0.0
11 23:35 N 3 10.00 NULL NULL 70 65.1 85% 30.14 0.0
11 23:15 N 3 10.00 NULL NULL 70.3 64.6 82% 30.13 0.0
11 22:55 Calm 10.00 NULL NULL 70.9 64.2 80% 30.13 0.0
11 22:35 Calm 10.00 NULL NULL 71.2 63.7 77% 30.13 0.0
11 22:15 W 5 10.00 NULL NULL 71.6 63.5 76% 30.12 0.0
11 21:53 Calm 10.00 Overcast OVC025 71.6 64.4 78% 30.12 0.0
11 20:53 Calm 10.00 Overcast OVC040 71.6 64.4 78% 30.11 0.0
11 19:53 W 7 10.00 Mostly Cloudy SCT030 BKN040 73.4 64.4 74% 30.1 0.0
11 18:53 W 7 10.00 Mostly Cloudy BKN030 73.4 64.4 74% 30.08 0.0
11 17:53 W 7 10.00 Mostly Cloudy BKN030 75.2 64.4 69% 77 30.07 0.0
11 16:53 W 12 10.00 Mostly Cloudy SCT020 BKN040 75.2 64.4 69% 77 30.06 0.0
11 15:53 W 9 10.00 Mostly Cloudy SCT020 BKN030 75.2 64.4 69% 77 30.05 0.0
11 14:53 W 10 G 18 10.00 Overcast BKN020 OVC028 75.2 64.4 69% 77 30.04 0.0
11 13:53 SW 10 10.00 Overcast BKN020 OVC025 73.4 64.4 74% 30.03 0.0
11 12:53 W 10 10.00 Overcast BKN020 OVC025 73.4 64.4 74% 30.02 0.0
11 11:53 W 8 10.00 Overcast BKN020 OVC025 71.6 62.6 73% 30.01 0.0
11 10:53 W 12 G 17 10.00 Overcast BKN020 OVC025 69.8 62.6 78% 29.99 0.0
11 09:53 W 13 G 16 10.00 Overcast BKN020 OVC025 69.8 62.6 78% 29.98 0.0
11 08:53 SW 12 G 18 10.00 Overcast OVC026 69.8 62.6 78% 29.97 0.0
11 07:53 W 12 G 18 10.00 Overcast OVC026 68 60.8 78% 29.95 0.0
11 06:53 SW 10 10.00 Overcast OVC026 68 60.8 78% 29.92 0.0
11 05:53 W 9 G 17 10.00 Overcast OVC026 68 60.8 78% 29.91 0.0
11 05:35 SW 10 G 16 10.00 NULL NULL 67.5 60.3 78% 29.9 0.0
11 05:15 SW 12 10.00 NULL NULL 67.8 60.1 76% 29.89 0.0
11 04:55 SW 12 10.00 NULL NULL 68 60.3 76% 29.89 0.0
11 04:35 SW 10 10.00 NULL NULL 68 60.3 76% 29.89 0.0
11 04:15 SW 10 G 17 10.00 NULL NULL 68 60.3 76% 29.88 0.0
11 03:55 SW 9 10.00 NULL NULL 68.2 60.3 76% 29.88 0.0
11 03:35 SW 10 10.00 NULL NULL 68.2 60.1 75% 29.88 0.0
11 03:15 W 12 10.00 NULL NULL 68.7 59.9 74% 29.87 0.0
11 02:55 W 15 G 21 10.00 NULL NULL 68.9 59.9 73% 29.86 0.0
11 02:35 W 13 10.00 NULL NULL 68.9 59.9 73% 29.86 0.0
11 02:15 W 13 10.00 NULL NULL 69.3 59.5 71% 29.86 0.0
11 01:55 W 8 G 20 10.00 NULL NULL 69.4 59.9 79.9 69.4 72% 29.86 0.0
11 01:35 W 15 G 24 10.00 NULL NULL 69.6 59.9 71% 29.85 0.0
11 01:15 SW 8 10.00 NULL NULL 69.8 60.4 72% 29.85 0.0
11 00:55 SW 14 G 20 10.00 NULL NULL 69.8 60.4 72% 29.85 0.0
11 00:35 SW 15 G 22 10.00 NULL NULL 70.3 60.4 71% 29.85 0.0
11 00:15 SW 16 G 25 10.00 NULL NULL 70.7 60.1 69% 29.85 0.0
10 23:55 SW 17 G 25 10.00 NULL NULL 71.6 60.3 68% 29.84 0.0
10 23:35 SW 13 G 21 10.00 NULL NULL 72 60.4 67% 29.84 0.0
10 23:15 SW 20 G 29 10.00 NULL NULL 72.7 59.9 64% 29.84 0.0
10 22:55 W 21 G 26 10.00 Breezy NULL 74.3 60.4 62% 29.83 0.0
10 22:35 SW 18 G 28 10.00 NULL NULL 75.2 61 61% 77 29.83 0.0
10 22:15 SW 7 10.00 NULL NULL 75.9 62.8 64% 78 29.81 0.0
10 21:53 W 12 10.00 A Few Clouds FEW035 75.2 62.6 65% 77 29.79 0.0
10 20:53 W 10 10.00 A Few Clouds FEW030 77 64.4 65% 79 29.75 0.0
10 19:53 W 10 10.00 Partly Cloudy SCT050 80.6 69.8 70% 84 29.73 0.0
10 18:53 SW 9 10.00 Light Drizzle BKN040 75.2 75.2 100% 73 29.71 0.0
10 17:53 S 7 10.00 Partly Cloudy SCT055 82.4 78.8 89% 92 29.7 0.0
10 16:53 SW 14 10.00 Mostly Cloudy BKN035 80.6 80.6 100% 89 29.69 0.0
10 15:53 S 15 G 23 10.00 Thunderstorm in Vicinity BKN045 89.6 71.6 55% 96 29.68 0.0
10 14:53 S 18 G 26 10.00 Thunderstorm in Vicinity BKN045 91.4 71.6 52% 99 29.69 0.0
10 13:53 S 16 G 23 10.00 Mostly Cloudy BKN045 91.4 71.6 52% 99 29.72 0.0
Date Time (edt) Wind (mph) Vis. (mi.) Weather Sky Cond. Air Dwpt Max. Min. Relative Humidity Wind Chill (°F) Heat Index (°F) altimeter (in) sea level (mb) 1 hr 3 hr 6 hr
6 hour
Temperature (ºF) Pressure Precipitation (in)